{"data":{"norad_id":53170,"epoch":"2026-09-20T04:00:03.000096Z","epoch_age_seconds":101003,"freshness":"FRESH","line1":"1 53170U 22083AQ  26263.16670139  .00081263  00000+0  32057-2 0  9991","line2":"2 53170  53.1585   4.6731 0001942  95.4955  86.7982 15.24863056  5835","mean_motion":15.24863056,"eccentricity":0.0001942,"inclination_deg":53.1585,"raan_deg":4.6731,"arg_perigee_deg":95.4955,"mean_anomaly_deg":86.7982,"bstar":0.0032057,"rev_number":583,"period_min":94.434709683202,"perigee_km":489.86265641995,"apogee_km":492.53070562166,"semimajor_km":6869.3336810208,"source":"CELESTRAK","updated_at":"2026-09-20T09:00:40.185673Z"}}